Back to catalog

STARLINK-31243

AliveCommunicationsVLEO
NORAD 58894·PAYLOAD·🇺🇸 United States

Launched Jan 29, 2024 from Vandenberg Space Force Base

Loading…

Next Passes (next 24 hours)

TLE

FreshSource: CelesTrak SupGP

Epoch: Sep 14, 2026, 21:15 UTC

1 58894C 24020U   26257.88590278 -.00034524  00000+0 -11099-2 0  2579
2 58894  53.1580 162.3694 0001315  76.9150 353.1869 15.31726594    16

Track STARLINK-31243 in real time with AllMySat

Download on the App Store